Dewpoint
27 28 29 33 37 37 38 40 40 42 47 51 51 54 56 61 64 67 67 67 66 66 65 64 64 62 60 58 57 56 56 57 57 56 57 57 58 56 56 57 56 58 59
35 37 36 34 37 34 37 38 40 41 44 48 50 52 56 60 62 65 67 67 66 66 65 64 63 61 60 57 57 56 56 57 58 55 56 55 56 58 58 58 58 57 59
36 37 39 40 42 39 36 37 39 41 44 49 51 56 59 60 61 62 64 66 66 66 65 65 63 62 60 58 57 57 57 57 58 58 56 55 54 57 58 58 58 59 59
36 36 37 40 42 42 39 39 39 41 42 48 50 52 53 55 58 60 62 64 65 66 65 65 64 62 61 59 58 57 58 60 58 59 58 58 57 56 55 57 57 57 57
36 36 38 39 42 43 41 40 40 41 43 47 50 51 53 55 57 59 60 63 63 65 65 65 64 62 61 60 58 58 58 59 59 58 59 58 58 57 57 54 57 56 57
37 37 39 40 43 45 43 42 42 42 44 46 50 51 52 52 56 58 59 61 62 63 64 64 64 63 62 61 60 58 58 58 58 59 59 58 57 57 55 55 55 56 55
38 38 38 39 41 44 42 41 42 43 44 46 48 51 52 53 54 54 57 59 59 61 63 64 63 63 62 61 61 59 58 58 58 59 59 59 59 58 56 55 54 55 55
38 39 39 40 41 44 45 42 43 43 45 46 47 50 52 53 54 54 56 58 58 60 61 63 63 63 62 61 61 60 59 59 59 58 59 59 59 58 57 56 54 52 53
40 42 40 40 41 44 46 46 45 45 46 47 48 50 53 53 54 55 58 59 60 59 60 63 63 62 62 61 61 60 59 58 59 59 60 59 59 59 59 57 56 55 52
44 45 43 42 43 45 47 48 48 48 49 50 52 52 53 53 54 55 56 57 59 60 61 60 63 62 62 61 61 60 58 58 59 59 59 59 59 60 59 58 56 56 56
42 45 46 45 46 47 48 48 49 49 50 52 52 53 54 54 54 55 55 56 59 60 59 60 60 61 62 61 60 60 59 59 59 59 59 59 59 59 59 59 58 56 55
41 43 46 49 50 50 50 50 51 51 51 51 52 53 53 54 54 53 56 57 56 58 59 59 59 60 61 61 60 59 58 58 58 58 59 59 59 59 59 59 58 57 56
40 42 43 45 46 49 50 51 50 51 52 52 53 53 53 54 54 55 56 57 56 57 59 59 59 59 61 60 59 59 59 58 59 58 59 58 59 58 59 58 58 57 55
39 40 41 43 44 47 50 50 50 51 51 51 52 52 54 54 55 55 56 57 57 57 58 60 60 60 60 60 60 60 59 59 59 59 59 59 59 58 58 58 57 56 55
38 40 40 42 43 44 46 46 47 48 52 51 51 52 52 53 54 56 57 57 58 59 60 60 59 59 59 59 59 59 59 59 58 57 58 58 57 54 57 57 57 56 54
38 38 39 40 41 42 44 45 45 46 47 46 47 51 52 51 51 52 57 53 54 54 55 56 55 54 53 53 54 56 57 56 56 56 56 56 53 53 52 53 53 55 54
37 38 38 39 39 40 41 42 43 43 44 44 45 46 46 46 46 47 48 49 49 49 48 48 49 48 49 50 51 52 54 54 54 53 53 53 52 51 54 53 52 52 51
37 37 38 39 39 39 39 39 39 40 40 40 41 42 43 43 44 45 45 45 45 45 45 45 45 46 46 47 48 48 48 47 46 46 46 47 46 47 48 48 48 46 45
36 36 37 38 38 38 39 38 38 38 38 38 38 39 40 40 41 41 42 43 43 43 43 44 44 44 45 46 46 45 45 44 43 44 44 45 45 46 47 44 41 40 40
34 34 34 35 35 37 38 38 38 38 38 38 38 38 38 38 38 39 40 41 41 41 41 41 42 43 43 44 44 44 44 43 43 43 43 44 45 46 45 43 42 40 38
34 34 33 33 34 35 34 35 36 36 38 38 38 38 38 38 38 38 38 39 38 38 38 38 38 38 41 43 44 43 41 41 41 41 41 42 44 45 45 44 42 42 41
34 34 33 33 33 34 34 33 33 34 35 36 36 37 38 38 38 39 39 39 38 38 38 38 39 39 39 42 42 43 44 43 40 40 40 40 41 42 44 44 43 42 40
33 33 33 32 32 32 33 32 33 33 33 33 33 34 34 35 36 36 36 36 36 37 37 37 37 38 39 40 42 42 42 41 41 42 42 42 42 41 41 42 44 43 37
33 33 32 32 31 31 31 31 32 32 31 29 30 32 33 33 33 34 34 34 34 34 35 35 35 36 36 38 38 39 40 40 40 40 40 40 40 40 40 40 40 39 36
33 33 33 32 32 31 31 30 31 31 30 30 29 29 30 30 30 31 32 32 35 35 34 35 36 35 35 36 37 38 38 39 41 40 38 38 36 36 35 35 35 35 35
33 33 32 32 32 31 31 30 30 30 29 28 28 29 27 26 26 25 25 32 32 32 33 33 33 32 34 35 35 35 36 37 39 38 36 35 35 34 34 34 34 34 35
Lifted_Index
11 11 12 13 13 14 15 16 16 16 15 13 12 10 7 4 2 -0 -2 -2 -1 -1 -1 -1 -0 0 0 1 3 5 5 4 3 3 3 4 4 5 5 5 5 5 5
10 11 11 12 13 13 14 15 16 16 15 14 12 10 8 5 3 1 -1 -1 -1 -1 -1 -1 -0 0 0 1 3 4 5 4 3 3 3 3 4 4 5 5 4 4 5
9 10 10 10 11 12 13 14 15 16 16 14 12 10 8 6 4 2 1 -0 -1 -1 -1 -1 -0 0 0 0 2 4 4 3 2 2 3 3 3 4 4 4 4 4 4
9 9 9 9 10 11 12 13 14 15 16 14 13 11 9 7 6 4 2 0 -0 -1 -1 -1 -0 0 0 0 1 2 3 3 2 2 2 3 3 3 3 4 4 4 4
9 9 9 9 10 11 11 12 13 14 15 14 13 11 10 9 7 5 3 1 0 -1 -1 -0 0 1 1 1 1 1 3 3 3 2 2 2 3 3 3 4 4 4 3
7 8 8 8 9 9 10 11 12 13 14 14 12 11 10 9 7 6 4 2 1 0 -0 -0 0 1 1 1 1 1 2 3 3 2 2 2 2 2 3 3 3 3 3
6 7 7 7 8 8 8 9 10 12 13 13 12 11 10 9 8 6 4 3 2 1 0 -0 -0 0 0 1 1 1 2 3 4 3 2 2 2 2 2 2 2 3 3
5 5 6 7 7 6 6 6 7 9 10 11 10 10 9 8 8 6 5 3 2 1 0 -0 -0 -0 -0 0 1 1 1 3 4 3 3 3 2 2 2 1 1 1 2
4 5 6 6 6 6 5 4 5 6 7 7 7 7 7 7 7 6 5 3 2 1 0 -0 -0 -0 -0 0 1 1 1 2 3 3 3 3 2 2 2 1 0 1 1
4 5 6 6 6 6 5 4 4 4 4 4 3 3 4 5 6 6 5 4 2 1 1 0 0 0 -0 0 1 1 1 2 3 3 2 2 2 2 2 1 0 0 1
5 5 6 6 6 5 5 5 5 4 4 2 1 0 1 2 4 5 5 5 3 2 2 1 1 1 1 0 1 1 1 2 2 2 2 2 1 2 2 2 1 0 0
5 5 5 5 5 5 5 5 5 4 4 2 1 -0 -1 0 1 2 3 4 4 3 2 2 1 1 1 1 1 1 1 2 2 2 2 2 2 2 2 2 1 1 0
5 5 5 5 5 5 5 5 5 5 5 4 2 1 -0 -0 -0 -0 1 3 4 4 3 2 2 1 1 1 1 1 1 2 2 3 3 3 2 2 2 2 1 1 1
5 5 4 5 5 5 5 5 5 5 6 5 4 3 1 1 0 -0 -0 1 3 3 3 2 2 1 2 2 2 2 1 2 3 3 2 2 2 2 1 1 1 1 1
5 4 4 4 4 4 5 5 5 5 6 6 6 5 4 3 2 1 0 1 2 3 2 2 2 2 2 2 2 2 2 2 3 3 2 2 2 2 2 1 2 2 2
5 4 4 3 3 3 3 4 4 5 6 7 7 6 5 4 3 2 1 1 2 3 3 2 3 3 3 3 3 3 3 3 3 3 3 3 2 2 2 2 2 2 2
5 5 5 4 3 3 3 3 4 4 5 6 6 5 4 3 3 2 2 2 2 3 3 3 3 3 3 3 4 4 4 4 3 3 3 3 2 2 2 2 2 2 2
7 7 7 6 5 5 4 4 4 4 4 4 4 4 3 2 2 2 2 2 2 3 3 3 3 3 3 3 3 4 4 3 3 3 3 3 3 3 3 3 3 3 3
10 9 9 9 9 8 7 6 6 5 5 5 4 4 4 3 3 2 2 3 3 3 2 2 2 2 3 3 3 3 3 3 3 3 3 4 4 4 4 4 4 4 4
11 11 12 12 12 11 10 10 9 9 8 8 8 7 7 6 5 5 5 5 4 4 4 4 4 4 4 4 4 4 4 4 4 4 4 4 5 5 6 6 6 6 6
12 13 13 13 13 13 13 12 12 12 12 12 11 11 10 10 9 9 9 8 8 7 7 7 7 6 6 6 6 6 6 6 5 5 5 6 6 6 6 7 7 7 7
13 14 14 14 14 15 15 14 14 14 15 14 14 14 13 13 13 12 12 11 11 11 10 10 10 10 10 10 9 9 9 9 8 8 8 8 8 8 8 8 8 8 7
14 14 15 15 15 16 16 16 16 16 16 16 16 15 15 15 15 14 14 14 14 13 13 13 13 13 13 12 12 12 12 12 11 11 11 10 10 9 9 9 9 9 9
14 14 15 15 15 16 16 16 16 16 16 16 16 16 16 16 16 16 15 15 15 15 15 15 15 15 15 15 14 14 14 14 14 13 13 12 11 10 10 10 10 10 10
14 14 14 15 15 16 16 16 17 17 17 17 17 17 17 17 17 17 17 17 17 17 17 17 16 16 16 17 17 16 17 16 16 15 14 13 12 11 11 10 10 10 10
14 14 14 15 15 16 16 17 17 17 17 17 17 17 17 17 17 17 17 18 18 18 18 18 18 18 18 18 18 18 18 18 17 16 14 13 13 12 11 10 10 9 9